Weather History for KMRB - October, 2011

Change the Weather History Date:

Tuesday, October 4, 2011

  Actual Average Record
Temperature  
Mean Temperature 55 °F 58 °F  
Max Temperature 64 °F 70 °F 89 °F (1959)
Min Temperature 45 °F 46 °F 25 °F (1974)
Degree Days  
Heating Degree Days 10 8  
Month to date heating degree days 60 29  
Since 1 July heating degree days 103 120  
Cooling Degree Days 0 1  
Month to date cooling degree days 0 4  
Year to date cooling degree days 1284 889  
Growing Degree Days 4 (Base 50)    
Moisture  
Dew Point 49 °F    
Average Humidity 82    
Maximum Humidity 100    
Minimum Humidity 63    
Precipitation  
Precipitation 0.00 in 0.10 in 3.00 in (1927)
Month to date precipitation 1.06 0.39  
Year to date precipitation 37.41 30.20  
Sea Level Pressure  
Sea Level Pressure 30.14 in    
Wind  
Wind Speed 6 mph (NW)    
Max Wind Speed 16 mph    
Max Gust Speed 21 mph    
Visibility 7 miles    
Events Fog    
T = Trace of Precipitation, MM = Missing Value Source: NWS Daily Summary

Daily Weather History Graph

Daily Weather History Graph

Search for Another Location

Airport or City:

Trip Planner

Search our weather history database for the weather conditions in past years. The results will help you decide how hot, cold, wet, or windy it might be!

Date:

Astronomy

Oct. 04, 2011 Rise Set
Actual Time 7:10 AM EDT 6:50 PM EDT
Civil Twilight 6:43 AM EDT 7:16 PM EDT
Nautical Twilight 6:12 AM EDT 7:47 PM EDT
Astronomical Twilight 5:41 AM EDT 8:19 PM EDT
Moon 2:48 PM EDT No Moon Set
Length of Visible Light 12h 33m
Length of Day
11h 39m
First Quarter, 56% of the Moon is Illuminated
Oct 4
First Quarter
Oct 11
Full
Oct 19
Last Quarter
Oct 26
New
Nov 2
First Quarter

Hourly Weather History & Observations

Time (EDT) Temp. Dew Point Humidity Pressure Visibility Wind Dir Wind Speed Gust Speed Precip Events Conditions
12:53 AM 51.1 °F 48.0 °F 89% 30.10 in 10.0 mi Calm Calm - N/A   Overcast
1:37 AM 50.0 °F 48.2 °F 94% 30.10 in 7.0 mi East 3.5 mph - N/A   Overcast
1:53 AM 50.0 °F 48.0 °F 93% 30.10 in 7.0 mi Calm Calm - N/A   Overcast
2:53 AM 50.0 °F 48.0 °F 93% 30.10 in 5.0 mi Calm Calm - N/A   Overcast
3:08 AM 50.0 °F 48.2 °F 94% 30.10 in 1.8 mi Calm Calm - N/A   Overcast
3:19 AM 48.2 °F 48.2 °F 100% 30.10 in 0.5 mi Calm Calm - N/A Fog Fog
3:28 AM 48.2 °F 48.2 °F 100% 30.10 in 0.2 mi Calm Calm - N/A Fog Fog
3:53 AM 46.9 °F 46.0 °F 97% 30.10 in 0.2 mi Calm Calm - N/A Fog Fog
4:00 AM 46.4 °F 46.4 °F 100% 30.10 in 0.5 mi Calm Calm - N/A Fog Fog
4:19 AM 46.4 °F 44.6 °F 93% 30.09 in 1.8 mi Calm Calm - N/A   Mostly Cloudy
4:22 AM 46.4 °F 44.6 °F 93% 30.10 in 3.0 mi Calm Calm - N/A   Mostly Cloudy
4:53 AM 45.0 °F 44.1 °F 97% 30.11 in 10.0 mi Calm Calm - N/A   Clear
5:07 AM 46.4 °F 44.6 °F 93% 30.11 in 1.8 mi Calm Calm - N/A   Partly Cloudy
5:16 AM 46.4 °F 44.6 °F 93% 30.11 in 3.0 mi Calm Calm - N/A   Partly Cloudy
5:53 AM 46.9 °F 46.0 °F 97% 30.12 in 9.0 mi Calm Calm - N/A   Overcast
6:53 AM 48.2 °F 46.4 °F 93% 30.13 in 10.0 mi Calm Calm - N/A   Overcast
7:53 AM 48.9 °F 46.9 °F 93% 30.16 in 8.0 mi Calm Calm - N/A   Overcast
8:53 AM 52.0 °F 50.0 °F 93% 30.17 in 10.0 mi Calm Calm - N/A   Overcast
10:38 AM 60.8 °F 50.0 °F 68% 30.18 in 10.0 mi North 6.9 mph - N/A   Mostly Cloudy
10:53 AM 61.0 °F 50.0 °F 67% 30.19 in 10.0 mi NW 12.7 mph 17.3 mph N/A   Mostly Cloudy
11:53 AM 64.0 °F 51.1 °F 63% 30.18 in 10.0 mi NW 11.5 mph - N/A   Mostly Cloudy
12:02 PM 62.6 °F 50.0 °F 63% 30.18 in 10.0 mi NW 6.9 mph 18.4 mph N/A   Mostly Cloudy
12:18 PM 62.6 °F 50.0 °F 63% 30.18 in 10.0 mi WNW 9.2 mph - N/A   Overcast
12:53 PM 62.1 °F 50.0 °F 65% 30.17 in 10.0 mi WNW 10.4 mph 17.3 mph N/A   Overcast
1:53 PM 63.0 °F 51.1 °F 65% 30.16 in 10.0 mi WNW 15.0 mph - N/A   Overcast
2:53 PM 62.6 °F 51.8 °F 68% 30.16 in 10.0 mi West 10.4 mph - N/A   Overcast
3:53 PM 63.0 °F 51.1 °F 65% 30.16 in 10.0 mi WNW 9.2 mph - N/A   Overcast
4:53 PM 63.0 °F 52.0 °F 67% 30.16 in 10.0 mi Variable 6.9 mph - N/A   Overcast
6:53 PM 61.0 °F 52.0 °F 72% 30.18 in 10.0 mi WNW 11.5 mph - N/A   Overcast
7:53 PM 61.0 °F 52.0 °F 72% 30.18 in 10.0 mi WNW 11.5 mph - N/A   Overcast
8:53 PM 60.8 °F 51.8 °F 72% 30.19 in 10.0 mi WNW 9.2 mph - N/A   Scattered Clouds
9:53 PM 57.0 °F 51.1 °F 81% 30.19 in 10.0 mi WNW 5.8 mph - N/A   Clear
10:53 PM 52.0 °F 50.0 °F 93% 30.19 in 10.0 mi Calm Calm - N/A   Clear
11:53 PM 52.0 °F 48.9 °F 89% 30.19 in 10.0 mi Calm Calm - N/A   Clear